Location: Arroyo de Valdeoliva
(40.1604°N, 4.9878°W)
Time: 17:32:38
(UTC+00:00)

Cosmos 1606 Rocket - Pass Details

Date: 11 December 2025
Orbit: 596 x 625 km, 82.5° (Epoch: 15 January)

Event Time Altitude Azimuth Distance (km) Brightness Sun altitude
Rises 17:51:58 0° 185° (S) 2,873 7.4 -10.8°
Reaches altitude 10° 17:54:10 10° 186° (S) 1,976 6.5 -11.2°
Maximum altitude 17:58:33 88° 105° (ESE) 628 3.5 -11.9°
Drops below altitude 10° 18:03:00 10° 8° (N) 2,004 5.9 -12.7°
Sets 18:05:15 0° 8° (N) 2,917 6.7 -13.1°
